STARLINK-3865 (52460 NORAD) Tracking and Keplerian Element Data

This shows tracking and keplerian element data for the satellite.

Feedback or suggestion? Click here.




ElementValue
Catalog52460
NameSTARLINK-3865
Epoch Orbit130
Epoch Day167.08334491
Epoch Year2022
RAAN65.0109
Inclination53.2166
Eccentricity0.000182
Argument of Perigee45.3689
Mean Anonmoly89.0934
Mean Motion15.73223736
Decay Rate0.00038683
L11 52460U 22049K 22167.08334491 .00038683 00000+0 27848-3 0 9993
L22 52460 53.2166 65.0109 0001820 45.3689 89.0934 15.73223736 1305

Live tracking and technical data element details for STARLINK-3865 (NORAD 52460). STARLINK-3865 can be tracked NOW for your location showing map with azimuth and elevation plus other details from your city location.

Track the satellite on the map from your city or location and see movement details for azimuth, elevation, latitude, longitude, range, height, and movement on the map or in text.







IsCatalogInMostPopularTable: catalog: 52460, numindb: 1
Update: records affected: 1



GetName: 52460 STARLINK-3865

Hit Count: updated at: Mon, 27 Jun 2022 06:32:59 GMT